Starlink 34412

operational
NORAD ID: 66132 Int'l Des: 2025-237 Owner: SPXS Country: US Constellation: starlink
LEOCIRCULAR

About Starlink 34412

Description loading...

Live Position

Loading 3D Globe...

Upcoming Passes

Altitude History

Altitude vs Time

uPlot chart will show altitude changes over time

Two-Line Element Set

1 66132C 25237U 25298.72340278 -.01191600 00000+0 -18933-2 0 2983
2 66132 53.1548 319.2460 0000687 66.1288 133.8112 16.04223022 15
Epoch: Oct 25, 2025 • Age: 144 hours

Current Status

Altitude 293.0 km
Velocity 7.74 km/s
Sub-Earth Point 51.86°N, 6.01°W
Launch Date Oct 22, 2025
Age 9 days
Type internet

Technical Details

Classification Payload
Mass 575.00 kg
Dry Mass 530.00 kg
Total Mass 575.00 kg
Length 0.30 m
Diameter 4.10 m
Span 29.00 m
Shape Box + pan
Manufacturer SPXS
Bus Type Starlink V2MO
Phase Status In Orbit
Owner/State SPXS/US

Large Constellations

Loading constellations...